Selinsgrove, PA

8:49 PM EST on November 13, 2019 (GMT -0500)
Penn Valley

Weather History for KSEG - June, 2019

Change the Weather History Date:

Sunday, June 9, 2019

  Actual Average (WUND) Record (WUND)
Temperature  
Mean Temperature 67 °F -  
Max Temperature 82 °F - - (-1)
Min Temperature 53 °F - - (-1)
Cooling Degree Days 2    
Growing Degree Days 17 (Base 50)    
Moisture  
Dew Point 48 °F    
Average Humidity 52    
Maximum Humidity 90    
Minimum Humidity 30    
Precipitation  
Precipitation 0.00 in - - ()
Sea Level Pressure  
Sea Level Pressure 30.22 in    
Wind  
Wind Speed 4 mph (ESE)    
Max Wind Speed 13 mph    
Max Gust Speed 23 mph    
Visibility 10 miles    
Events      
Averages and records for this station are not official NWS values.
T = Trace of Precipitation, MM = Missing Value Source: NWS Daily Summary

Daily Weather History Graph

Daily Weather History Graph

Search for Another Location

Airport or City:

Astronomy

Jun. 09, 2019 Rise Set
Actual Time 5:35 AM EDT 8:37 PM EDT
Civil Twilight 5:02 AM EDT 9:11 PM EDT
Nautical Twilight 4:20 AM EDT 9:53 PM EDT
Astronomical Twilight 3:30 AM EDT 10:43 PM EDT
Moon 12:13 PM EDT (6/9) 1:15 AM EDT (6/9)
Length of Visible Light 16h 08m
Length of Day
15h 02m
Waxing Crescent, 43% of the Moon is Illuminated
Jun 9
Waxing Crescent
Jun 10
First Quarter
Jun 17
Full
Jun 25
Last Quarter
Jul 2
New

Hourly Weather History & Observations

Time (EDT) Temp. Dew Point Humidity Pressure Visibility Wind Dir Wind Speed Gust Speed Precip Events Conditions
12:53 AM 60.1 °F 53.1 °F 78% 30.21 in 10.0 mi Calm Calm - N/A   Clear
1:53 AM 57.0 °F 53.1 °F 87% 30.22 in 10.0 mi Calm Calm - N/A   Clear
2:53 AM 55.9 °F 52.0 °F 87% 30.22 in 10.0 mi Calm Calm - N/A   Clear
3:53 AM 55.0 °F 51.1 °F 86% 30.22 in 10.0 mi NW 3.5 mph - N/A   Clear
4:53 AM 54.0 °F 51.1 °F 90% 30.21 in 10.0 mi NW 3.5 mph - N/A   Clear
5:53 AM 53.1 °F 50.0 °F 89% 30.24 in 10.0 mi NNW 4.6 mph - N/A   Clear
6:53 AM 57.0 °F 51.1 °F 81% 30.25 in 10.0 mi Calm Calm - N/A   Clear
7:53 AM 63.0 °F 52.0 °F 67% 30.26 in 10.0 mi Calm Calm - N/A   Clear
8:53 AM 66.9 °F 51.1 °F 57% 30.26 in 10.0 mi Calm Calm - N/A   Clear
9:53 AM 70.0 °F 52.0 °F 53% 30.26 in 10.0 mi NE 3.5 mph - N/A   Clear
10:53 AM 73.9 °F 46.9 °F 38% 30.26 in 10.0 mi SSE 10.4 mph - N/A   Clear
11:53 AM 77.0 °F 46.9 °F 34% 30.24 in 10.0 mi SE 9.2 mph - N/A   Clear
12:53 PM 79.0 °F 46.9 °F 32% 30.22 in 10.0 mi ESE 10.4 mph - N/A   Clear
1:53 PM 80.1 °F 48.0 °F 32% 30.21 in 10.0 mi SSE 11.5 mph - N/A   Clear
2:53 PM 81.0 °F 48.0 °F 31% 30.21 in 10.0 mi SE 10.4 mph 19.6 mph N/A   Clear
3:53 PM 81.0 °F 48.0 °F 31% 30.19 in 10.0 mi ESE 10.4 mph 19.6 mph N/A   Clear
4:53 PM 80.1 °F 46.9 °F 31% 30.19 in 10.0 mi ESE 12.7 mph 19.6 mph N/A   Clear
5:53 PM 79.0 °F 45.0 °F 30% 30.19 in 10.0 mi SSE 12.7 mph 23.0 mph N/A   Clear
6:53 PM 77.0 °F 45.0 °F 32% 30.18 in 10.0 mi ESE 10.4 mph - N/A   Clear
7:53 PM 75.0 °F 45.0 °F 34% 30.19 in 10.0 mi ESE 9.2 mph - N/A   Overcast
8:53 PM 73.0 °F 45.0 °F 37% 30.19 in 10.0 mi SE 12.7 mph - N/A   Overcast
9:53 PM 72.0 °F 44.1 °F 37% 30.19 in 10.0 mi ESE 8.1 mph - N/A   Overcast
10:53 PM 71.1 °F 46.0 °F 41% 30.19 in 10.0 mi East 4.6 mph - N/A   Overcast
11:53 PM 70.0 °F 41.0 °F 35% 30.17 in 10.0 mi ESE 6.9 mph - N/A   Overcast